#timestamp,LO_Frequency,Hit 
1504339215.5,286046994.8,N
1504339235.3,286046993.4,N
1504339255.1,286046992.5,N
1504339275.9,286046988.9,P
1504339295.7,286046992.3,N
1504339315.5,286046994.3,N
1504339335.4,286046994.1,N
1504339355.2,286046995.9,N
1504339375.0,286046995.1,N
1504339375.9,286046995.1,N
1504339395.8,286046998.4,N
1504339415.6,286046997.6,N
1504339435.4,286046991.9,N
1504339455.2,286046994.5,N
1504339475.1,286047001.1,N
1504339476.0,286047001.1,N
1504339495.8,286047000.5,N
1504339515.6,286046996.9,N
1504339535.5,286046996.0,N
1504339555.3,286046994.1,N
1504339575.1,286046996.8,N
1504339595.9,286046997.0,N
1504339615.7,286046997.0,N
1504339635.5,286046999.2,N
1504339655.4,286046996.5,N
1504339675.2,286046999.5,N
1504339695.0,286046995.9,N
1504339695.9,286046995.9,N
1504339715.8,286046991.9,N
1504339735.6,286046996.7,N
1504339755.4,286046998.7,N
1504339775.2,286046997.8,N
1504339795.1,286046996.0,N
1504339796.0,286046996.0,N
1504339815.8,286046995.2,N
1504339835.6,286046996.3,N
1504339855.5,286046994.7,N
1504339875.3,286046992.7,P
1504339895.1,286046993.5,P
1504339915.9,286046997.6,N
1504339935.7,286047001.6,N
1504339955.5,286047001.3,N
1504339975.4,286047003.1,N
1504339995.2,286047001.1,N
1504340015.0,286046996.9,N
1504340015.9,286046996.9,N
1504340035.8,286047000.7,N
1504340055.6,286047000.7,N
1504340075.4,286047003.0,N
1504340095.3,286047003.4,N
1504340115.1,286047003.3,N
1504340116.0,286047003.3,N
1504340135.8,286047005.8,N
1504340155.7,286046998.6,N
1504340175.5,286046996.6,N
1504340195.3,286047003.6,N
1504340215.1,286047000.1,N
1504340235.9,286047001.1,N
1504340255.7,286046997.0,N
1504340275.5,286046998.2,N
1504340295.4,286046999.2,N
1504340315.2,286046995.2,N
1504340335.0,286046995.1,N
1504340335.9,286046995.1,N
1504340355.8,286046993.7,N
1504340375.6,286046991.7,N
1504340395.4,286046996.7,N
1504340415.3,286047002.8,N
1504340435.1,286047003.5,N
1504340436.0,286047003.5,N
1504340455.8,286047002.9,N
1504340475.7,286047005.2,N
1504340495.5,286047001.3,N
1504340515.3,286047000.3,N
1504340535.1,286047000.2,N
1504340555.9,286046998.9,N
1504340575.7,286046997.7,N
1504340595.5,286046996.6,N
1504340615.4,286047001.2,N
1504340635.2,286047000.8,N
1504340655.0,286047002.7,N
1504340655.9,286047002.7,N
1504340675.8,286047003.9,N
1504340695.6,286047001.6,N
1504340715.4,286047003.7,N
1504340735.3,286047005.5,N
1504340755.1,286047001.2,N
1504340756.0,286047001.2,N
1504340775.8,286047002.8,N
1504340795.7,286047000.0,N
1504340815.5,286046997.1,N
1504340835.3,286046998.9,N
1504340855.1,286046997.7,N
1504340875.9,286046999.3,N
1504340895.7,286046998.2,N
1504340915.5,286046996.6,N
1504340935.4,286046996.1,N
1504340955.2,286046994.2,N
1504340975.0,286046994.9,N
1504340975.9,286046994.9,N
1504340995.8,286047004.2,N
1504341015.6,286047000.6,N
1504341035.4,286046996.7,N
1504341055.3,286046999.3,N
1504341075.1,286047002.5,N
1504341076.0,286047002.5,N
1504341095.8,286047001.5,N
1504341115.7,286046999.2,N
1504341135.5,286046996.7,N
1504341155.3,286046995.2,N
1504341175.2,286046996.3,N
1504341195.9,286046997.8,N
1504341215.7,286047000.3,N
1504341235.6,286047002.5,N
1504341255.4,286047002.0,N
1504341275.2,286046996.9,N
1504341295.0,286047000.3,N
1504341295.9,286047000.3,N
1504341315.8,286046999.3,N
1504341335.6,286047002.6,N
1504341355.4,286047001.7,N
1504341375.3,286047000.3,N
1504341395.1,286046999.9,N
1504341415.8,286046998.5,N
1504341435.7,286046998.2,N
1504341455.5,286046998.7,N
1504341475.3,286046996.5,N
1504341495.2,286046997.7,N
1504341515.9,286046996.4,N
1504341535.7,286046992.5,P
1504341555.6,286046998.0,N
1504341575.4,286046998.2,N
1504341595.2,286047000.6,N
1504341615.1,286046995.4,N
1504341616.0,286046995.4,N
1504341635.8,286046994.9,N
1504341655.6,286046996.9,N
1504341675.5,286046998.5,N
1504341695.3,286046999.3,N
1504341715.1,286046997.1,N
1504341735.8,286046997.4,N
1504341755.7,286047000.5,N
1504341775.5,286047002.3,N
1504341795.3,286046998.4,N
1504341815.2,286046999.5,N
1504341835.9,286047001.1,N
1504341855.7,286046999.3,N
1504341875.6,286046997.1,N
1504341895.4,286046998.3,N
1504341915.2,286047001.8,N
1504341935.1,286046998.3,N
1504341936.0,286046998.3,N
1504341955.8,286046999.4,N
1504341975.6,286046993.9,N
1504341995.4,286046995.8,N
1504342015.3,286046998.0,N
1504342035.1,286046997.5,N
1504342055.8,286046996.8,N
1504342075.7,286046993.4,P
1504342095.5,286047000.1,N
1504342115.3,286047004.8,N
1504342135.2,286047003.7,N
1504342155.0,286046999.9,N
1504342155.9,286046999.9,N
1504342175.7,286046997.3,N
1504342195.6,286047002.0,N
1504342215.4,286047003.3,N
1504342235.2,286047000.7,N
1504342255.1,286046996.5,N
1504342256.0,286046996.5,N
1504342275.8,286046999.5,N
1504342295.6,286046997.6,N
1504342315.5,286046999.2,N
1504342335.3,286046997.5,N
1504342355.1,286046999.6,N
1504342375.9,286046999.2,N
1504342395.7,286046999.4,N
1504342415.5,286047001.9,N
1504342435.4,286047001.3,N
1504342455.2,286047002.3,N
1504342475.0,286046999.3,N
1504342475.9,286046999.3,N
1504342495.7,286046997.2,N
1504342515.6,286046996.2,N
1504342535.4,286047002.6,N
1504342555.2,286047002.5,N
1504342575.1,286046999.5,N
1504342576.0,286046999.5,N
1504342595.8,286047000.1,N
1504342615.6,286046995.8,N
1504342635.5,286046992.9,P
1504342655.3,286046992.6,N
1504342675.1,286046987.4,P
1504342695.9,286046989.0,N
1504342715.7,286046996.1,N
1504342735.5,286046991.8,N
1504342755.4,286046990.2,N
1504342775.2,286046999.6,N
1504342795.0,286047000.4,N
1504342795.9,286047000.4,N
